Location: Dumpton Point
(51.3500°N, 1.4433°E)
Time: 23:17:46
(UTC+00:00)

MetOp-A - Pass Details

Date: 09 April 2020
Orbit: 819 x 821 km, 98.5° (Epoch: 03 June)

Event Time Altitude Azimuth Distance (km) Brightness Sun altitude
Exits shadow 19:13:32 - 145° (SE) 3,305 6.8 -5.6°
Reaches altitude 10° 19:15:50 10° 140° (SE) 2,415 6.1 -6.0°
Maximum altitude 19:20:58 50° 67° (ENE) 1,047 4.5 -6.7°
Drops below altitude 10° 19:26:08 10° 354° (N) 2,431 7.0 -7.4°
Sets 19:28:33 0° 349° (N) 3,368 7.9 -7.8°
